This is the latest recevied weather packets stored in our database for station/object 9D9-WX. If no packets are shown the sender has not sent any weather packets the latest 10 day(s).
| Time | Temp. | Humidity | Pressure | Rain* | Wind** | Luminosity | Snow |
|---|---|---|---|---|---|---|---|
| 1777598110 | 6.67° C | 66% | 986.8 hPa | 0 mm | - | - | - |
| 1777597223 | 6.67° C | 66% | 986.8 hPa | 0 mm | - | - | - |
| 1777596310 | 6.67° C | 57% | 986.1 hPa | 0 mm | - | - | - |
| 1777595421 | 7.22° C | 58% | 987.2 hPa | 0 mm | - | - | - |
| 1777594511 | 7.22° C | 58% | 987.2 hPa | 0 mm | - | - | - |
| 1777593627 | 7.78° C | 58% | 987.2 hPa | 0 mm | - | - | - |
| 1777592711 | 7.78° C | 48% | 986.7 hPa | 0 mm | - | - | - |
| 1777591825 | 7.78° C | 47% | 986.8 hPa | 0 mm | - | - | - |
| 1777590911 | 8.33° C | 47% | 986.8 hPa | 0 mm | - | - | - |
| 1777590025 | 8.89° C | 47% | 986.8 hPa | 0 mm | - | - | - |
| 1777589110 | 8.89° C | 44% | 987.4 hPa | 0 mm | - | - | - |
| 1777588221 | 9.44° C | 43% | 987.9 hPa | 0 mm | - | - | - |
| 1777587310 | 8.89° C | 43% | 987.9 hPa | 0 mm | - | - | - |
| 1777586431 | 9.44° C | 43% | 987.9 hPa | 0 mm | - | - | - |
| 1777585510 | 9.44° C | 44% | 986.7 hPa | 0 mm | - | - | - |
| 1777584626 | 9.44° C | 46% | 987.6 hPa | 0 mm | - | - | - |
| 1777583711 | 9.44° C | 46% | 987.6 hPa | 0 mm | - | - | - |
| 1777582824 | 9.44° C | 46% | 987.6 hPa | 0 mm | - | - | - |
| 1777581911 | 9.44° C | 45% | 987.3 hPa | 0 mm | - | - | - |
| 1777581026 | 10° C | 45% | 987 hPa | 0 mm | - | - | - |
| 1777580111 | 9.44° C | 45% | 986.9 hPa | 0 mm | - | - | - |
| 1777579231 | 10° C | 45% | 986.9 hPa | 0 mm | - | - | - |
| 1777578311 | 10° C | 45% | 987.1 hPa | 0 mm | - | - | - |
| 1777577421 | 10° C | 45% | 987.1 hPa | 0 mm | - | - | - |
| 1777576510 | 10° C | 45% | 987 hPa | 0 mm | - | - | - |
* Rain latest hour (hover to see other rain measurements)
** Current wind speed in m/s (hover to see current wind gust speed)